2023/06/26 00:00:00,162.1,18.9
2023/06/26 00:10:00,162.1,19.5
2023/06/26 00:20:00,162.1,19.1
2023/06/26 00:30:00,162.1,18.6
2023/06/26 00:40:00,162.1,19.0
2023/06/26 00:50:00,162.1,19.0
2023/06/26 01:00:00,162.1,19.2
2023/06/26 01:10:00,162.1,18.9
2023/06/26 01:20:00,162.1,19.2
2023/06/26 01:30:00,162.1,19.3
2023/06/26 01:40:00,162.1,19.2
2023/06/26 01:50:00,162.1,19.2
2023/06/26 02:00:00,162.1,19.1
2023/06/26 02:10:00,162.1,19.4
2023/06/26 02:20:00,162.1,19.1
2023/06/26 02:30:00,161.4,19.4
2023/06/26 02:40:00,160.9,18.7
2023/06/26 02:50:00,161.4,19.0
2023/06/26 03:00:00,160.5,19.1
2023/06/26 03:10:00,160.5,19.1
2023/06/26 03:20:00,161.2,19.1
2023/06/26 03:30:00,161.9,19.0
2023/06/26 03:40:00,161.9,19.0
2023/06/26 03:50:00,161.9,18.9
2023/06/26 04:00:00,161.9,19.2
2023/06/26 04:10:00,161.9,19.5
2023/06/26 04:20:00,161.9,19.5
2023/06/26 04:30:00,161.9,19.5
2023/06/26 04:40:00,161.9,19.4
2023/06/26 04:50:00,161.9,19.3
2023/06/26 05:00:00,161.9,19.7
2023/06/26 05:10:00,161.9,19.7
2023/06/26 05:20:00,161.7,19.2
2023/06/26 05:30:00,161.7,19.0
2023/06/26 05:40:00,161.7,19.2
2023/06/26 05:50:00,161.8,19.3
2023/06/26 06:00:00,161.9,19.5
2023/06/26 06:10:00,161.9,19.4
2023/06/26 06:20:00,161.9,19.1
2023/06/26 06:30:00,161.9,19.5
2023/06/26 06:40:00,161.9,19.1
2023/06/26 06:50:00,161.9,18.7
2023/06/26 07:00:00,161.9,18.5
2023/06/26 07:10:00,161.9,18.7
2023/06/26 07:20:00,161.9,18.8
2023/06/26 07:30:00,161.9,19.1
2023/06/26 07:40:00,161.9,18.8
2023/06/26 07:50:00,161.9,19.0
2023/06/26 08:00:00,161.9,18.9
2023/06/26 08:10:00,162.0,19.0
2023/06/26 08:20:00,162.0,19.2
2023/06/26 08:30:00,162.0,19.3
2023/06/26 08:40:00,162.0,19.5
2023/06/26 08:50:00,162.0,19.5
2023/06/26 09:00:00,162.0,19.6
2023/06/26 09:10:00,162.0,19.7
2023/06/26 09:20:00,162.0,19.7
2023/06/26 09:30:00,162.0,19.7
2023/06/26 09:40:00,162.0,20.2
2023/06/26 09:50:00,162.0,20.2
2023/06/26 10:00:00,162.0,19.9
2023/06/26 10:10:00,162.0,19.5
2023/06/26 10:20:00,162.0,19.5
2023/06/26 10:30:00,162.0,19.5
2023/06/26 10:40:00,162.0,19.7
2023/06/26 10:50:00,162.0,20.3
2023/06/26 11:00:00,162.0,20.2
2023/06/26 11:10:00,162.0,20.1
2023/06/26 11:20:00,162.0,20.5
2023/06/26 11:30:00,162.2,21.1
2023/06/26 11:40:00,162.3,21.3
2023/06/26 11:50:00,162.3,21.5
2023/06/26 12:00:00,162.3,22.0
2023/06/26 12:10:00,162.3,22.5
2023/06/26 12:20:00,162.3,22.3
2023/06/26 12:30:00,162.3,22.3
2023/06/26 12:40:00,162.7,22.3
2023/06/26 12:50:00,162.6,21.9
2023/06/26 13:00:00,162.6,21.4
2023/06/26 13:10:00,162.6,21.8
2023/06/26 13:20:00,162.6,22.5
2023/06/26 13:30:00,162.5,22.6
2023/06/26 13:40:00,162.5,22.3
2023/06/26 13:50:00,162.5,22.5
2023/06/26 14:00:00,162.5,22.3
2023/06/26 14:10:00,162.5,22.0
2023/06/26 14:20:00,162.5,22.3
2023/06/26 14:30:00,162.5,22.1
2023/06/26 14:40:00,162.5,21.8
2023/06/26 14:50:00,162.5,21.7
2023/06/26 15:00:00,162.4,22.0
2023/06/26 15:10:00,162.4,21.9
2023/06/26 15:20:00,162.4,21.7
2023/06/26 15:30:00,162.4,21.5
2023/06/26 15:40:00,162.4,21.9
2023/06/26 15:50:00,162.4,21.3
2023/06/26 16:00:00,162.4,21.4
2023/06/26 16:10:00,162.4,21.9
2023/06/26 16:20:00,162.4,21.7
2023/06/26 16:30:00,162.1,21.8
2023/06/26 16:40:00,161.9,21.5
2023/06/26 16:50:00,161.9,21.6
2023/06/26 17:00:00,161.9,21.4
2023/06/26 17:10:00,161.9,20.8
2023/06/26 17:20:00,161.9,20.7
2023/06/26 17:30:00,161.9,20.3
2023/06/26 17:40:00,161.9,20.4
2023/06/26 17:50:00,161.9,20.5
2023/06/26 18:00:00,161.9,20.5
2023/06/26 18:10:00,161.9,20.6
2023/06/26 18:20:00,161.9,20.7
2023/06/26 18:30:00,161.9,20.6
2023/06/26 18:40:00,161.9,20.3
2023/06/26 18:50:00,161.9,20.5
2023/06/26 19:00:00,161.9,20.4
2023/06/26 19:10:00,161.9,20.7
2023/06/26 19:20:00,161.9,20.5
2023/06/26 19:30:00,161.9,20.5
2023/06/26 19:40:00,161.9,20.5
2023/06/26 19:50:00,161.9,20.4
2023/06/26 20:00:00,161.9,20.5
2023/06/26 20:10:00,161.9,20.1
2023/06/26 20:20:00,161.9,20.4
2023/06/26 20:30:00,161.9,20.4
2023/06/26 20:40:00,161.9,20.4
2023/06/26 20:50:00,161.9,20.3
2023/06/26 21:00:00,161.9,20.1
2023/06/26 21:10:00,161.9,20.4
2023/06/26 21:20:00,161.9,20.4
2023/06/26 21:30:00,161.9,20.2
2023/06/26 21:40:00,161.9,20.1
2023/06/26 21:50:00,161.9,20.0
2023/06/26 22:00:00,161.9,20.1
2023/06/26 22:10:00,161.9,19.8
2023/06/26 22:20:00,161.9,19.8
2023/06/26 22:30:00,161.9,19.9
2023/06/26 22:40:00,161.9,19.7
2023/06/26 22:50:00,161.9,19.8
2023/06/26 23:00:00,161.9,19.9
2023/06/26 23:10:00,161.9,19.7
2023/06/26 23:20:00,161.9,19.7
2023/06/26 23:30:00,161.9,19.5
2023/06/26 23:40:00,161.9,19.7
2023/06/26 23:50:00,161.9,19.6
